Falfurrias, TX

7:33 PM CST on December 13, 2019 (GMT -0600)
Falfurrias

Weather History for KBKS - November, 2019

Change the Weather History Date:

Saturday, November 16, 2019

  Actual Average (KNQI) Record (KNQI)
Temperature  
Mean Temperature 56 °F -  
Max Temperature 73 °F 74 °F 91 °F (2011)
Min Temperature 40 °F 55 °F 33 °F (2008)
Degree Days  
Heating Degree Days 8    
Growing Degree Days 6 (Base 50)    
Moisture  
Dew Point 45 °F    
Average Humidity 69    
Maximum Humidity 89    
Minimum Humidity 35    
Precipitation  
Precipitation 0.00 in - - ()
Sea Level Pressure  
Sea Level Pressure 30.18 in    
Wind  
Wind Speed 2 mph ()    
Max Wind Speed 12 mph    
Max Gust Speed 16 mph    
Visibility 10.0 miles    
Events      
Averages and records for this station are not official NWS values.
T = Trace of Precipitation, MM = Missing Value Source: Averaged Metar Reports

Daily Weather History Graph

Daily Weather History Graph

Search for Another Location

Airport or City:

Astronomy

Nov. 16, 2019 Rise Set
Actual Time 6:53 AM CST 5:40 PM CST
Civil Twilight 6:28 AM CST 6:05 PM CST
Nautical Twilight 6:00 AM CST 6:33 PM CST
Astronomical Twilight 5:32 AM CST 7:01 PM CST
Moon 9:23 PM CST (11/16) 10:39 AM CST (11/16)
Length of Visible Light 11h 36m
Length of Day
10h 47m
Waning Gibbous, 82% of the Moon is Illuminated
Nov 16
Waning Gibbous
Nov 19
Last Quarter
Nov 26
New
Dec 4
First Quarter
Dec 11
Full

Hourly Weather History & Observations

Time (CST) Temp. Windchill Dew Point Humidity Pressure Visibility Wind Dir Wind Speed Gust Speed Precip Events Conditions
12:15 AM 45.7 °F - 40.6 °F 83% 30.28 in 10.0 mi Calm Calm - N/A   Clear
12:55 AM 44.6 °F - 39.7 °F 83% 30.28 in 10.0 mi Calm Calm - N/A   Clear
1:15 AM 44.2 °F - 39.6 °F 84% 30.28 in 10.0 mi Calm Calm - N/A   Clear
1:35 AM 44.1 °F - 39.2 °F 83% 30.27 in 10.0 mi Calm Calm - N/A   Clear
1:55 AM 43.2 °F - 38.7 °F 84% 30.27 in 10.0 mi Calm Calm - N/A   Clear
2:15 AM 43.0 °F - 38.5 °F 84% 30.27 in 10.0 mi Calm Calm - N/A   Clear
2:55 AM 43.3 °F - 38.5 °F 83% 30.26 in 10.0 mi Calm Calm - N/A   Clear
3:15 AM 43.3 °F - 38.5 °F 83% 30.26 in 10.0 mi Calm Calm - N/A   Clear
3:35 AM 42.8 °F - 38.3 °F 84% 30.26 in 10.0 mi Calm Calm - N/A   Clear
3:55 AM 42.8 °F - 38.5 °F 85% 30.26 in 10.0 mi Calm Calm - N/A   Clear
4:15 AM 42.1 °F - 37.8 °F 85% 30.25 in 10.0 mi Calm Calm - N/A   Clear
4:35 AM 41.0 °F - 37.4 °F 87% 30.25 in 10.0 mi Calm Calm - N/A   Clear
4:55 AM 40.5 °F - 36.9 °F 87% 30.24 in 10.0 mi Calm Calm - N/A   Clear
5:15 AM 41.2 °F - 37.4 °F 86% 30.24 in 10.0 mi Calm Calm - N/A   Clear
5:35 AM 40.5 °F 37.3 °F 36.9 °F 87% 30.23 in 10.0 mi North 4.6 mph - N/A   Clear
5:55 AM 41.0 °F 39.0 °F 37.2 °F 86% 30.24 in 10.0 mi NNW 3.5 mph - N/A   Clear
6:15 AM 41.0 °F - 37.4 °F 87% 30.24 in 10.0 mi Calm Calm - N/A   Clear
6:35 AM 41.4 °F - 37.4 °F 86% 30.24 in 10.0 mi Calm Calm - N/A   Clear
6:55 AM 40.3 °F - 36.9 °F 88% 30.25 in 10.0 mi Calm Calm - N/A   Clear
7:15 AM 41.0 °F - 37.4 °F 87% 30.26 in 10.0 mi Calm Calm - N/A   Clear
7:35 AM 42.4 °F - 38.5 °F 86% 30.27 in 10.0 mi Calm Calm - N/A   Clear
7:55 AM 44.6 °F 43.1 °F 40.3 °F 85% 30.27 in 10.0 mi NNW 3.5 mph - N/A   Clear
8:15 AM 47.1 °F - 41.7 °F 81% 30.27 in 10.0 mi North 3.5 mph - N/A   Clear
8:35 AM 49.6 °F - 43.7 °F 80% 30.26 in 10.0 mi North 3.5 mph - N/A   Clear
8:55 AM 53.1 °F - 44.8 °F 73% 30.27 in 10.0 mi North 3.5 mph - N/A   Clear
9:15 AM 56.1 °F - 45.0 °F 66% 30.27 in 10.0 mi NE 4.6 mph - N/A   Clear
9:35 AM 58.5 °F - 43.9 °F 58% 30.27 in 10.0 mi NE 4.6 mph - N/A   Clear
9:55 AM 59.9 °F - 43.3 °F 54% 30.26 in 10.0 mi NE 5.8 mph - N/A   Clear
10:15 AM 62.2 °F - 43.2 °F 50% 30.25 in 10.0 mi East 6.9 mph - N/A   Clear
10:35 AM 64.0 °F - 43.7 °F 48% 30.25 in 10.0 mi ENE 4.6 mph - N/A   Clear
10:55 AM 65.1 °F - 44.4 °F 47% 30.25 in 10.0 mi ENE 5.8 mph - N/A   Clear
11:15 AM 66.4 °F - 45.1 °F 46% 30.23 in 10.0 mi East 5.8 mph - N/A   Clear
11:35 AM 67.1 °F - 45.5 °F 46% 30.22 in 10.0 mi Calm Calm - N/A   Clear
11:55 AM 67.1 °F - 45.0 °F 45% 30.21 in 10.0 mi Calm Calm - N/A   Clear
12:15 PM 67.6 °F - 44.1 °F 43% 30.20 in 10.0 mi SW 4.6 mph - N/A   Clear
12:35 PM 69.1 °F - 44.4 °F 41% 30.19 in 10.0 mi Calm Calm - N/A   Clear
12:55 PM 70.3 °F - 45.1 °F 40% 30.18 in 10.0 mi ENE 3.5 mph - N/A   Clear
1:15 PM 70.0 °F - 44.1 °F 39% 30.16 in 10.0 mi Calm Calm - N/A   Clear
1:35 PM 71.1 °F - 43.2 °F 37% 30.15 in 10.0 mi South 4.6 mph - N/A   Clear
1:55 PM 72.7 °F - 43.2 °F 35% 30.14 in 10.0 mi South 3.5 mph - N/A   Clear
2:15 PM 72.7 °F - 43.3 °F 35% 30.11 in 10.0 mi ESE 4.6 mph - N/A   Clear
2:55 PM 73.2 °F - 44.1 °F 35% 30.10 in 10.0 mi ESE 6.9 mph - N/A   Clear
3:15 PM 72.9 °F - 44.2 °F 36% 30.09 in 10.0 mi ESE 6.9 mph - N/A   Clear
3:35 PM 73.2 °F - 44.8 °F 36% 30.09 in 10.0 mi ESE 5.8 mph - N/A   Clear
3:55 PM 73.0 °F - 44.8 °F 36% 30.09 in 10.0 mi ESE 5.8 mph - N/A   Clear
4:15 PM 72.7 °F - 46.2 °F 39% 30.08 in 10.0 mi ENE 10.4 mph 16.1 mph N/A   Clear
4:35 PM 69.8 °F - 49.5 °F 48% 30.08 in 10.0 mi East 11.5 mph - N/A   Clear
4:55 PM 68.9 °F - 50.4 °F 52% 30.08 in 10.0 mi East 10.4 mph - N/A   Clear
5:15 PM 67.3 °F - 50.5 °F 55% 30.08 in 10.0 mi East 11.5 mph - N/A   Clear
5:35 PM 65.5 °F - 50.5 °F 58% 30.09 in 10.0 mi East 9.2 mph - N/A   Clear
5:55 PM 63.9 °F - 50.7 °F 62% 30.09 in 10.0 mi East 6.9 mph - N/A   Clear
6:15 PM 63.0 °F - 51.1 °F 65% 30.10 in 10.0 mi East 5.8 mph - N/A   Clear
6:35 PM 61.7 °F - 51.3 °F 69% 30.10 in 10.0 mi East 3.5 mph - N/A   Clear
6:55 PM 60.8 °F - 51.4 °F 71% 30.11 in 10.0 mi East 3.5 mph - N/A   Clear
7:15 PM 59.7 °F - 51.3 °F 74% 30.11 in 10.0 mi East 3.5 mph - N/A   Clear
7:35 PM 58.6 °F - 51.3 °F 76% 30.11 in 10.0 mi East 3.5 mph - N/A   Clear
7:55 PM 58.1 °F - 51.3 °F 78% 30.11 in 10.0 mi East 4.6 mph - N/A   Clear
8:15 PM 57.4 °F - 51.3 °F 80% 30.11 in 10.0 mi East 3.5 mph - N/A   Clear
8:35 PM 56.8 °F - 51.4 °F 82% 30.11 in 10.0 mi East 3.5 mph - N/A   Clear
8:55 PM 56.3 °F - 51.4 °F 84% 30.11 in 10.0 mi East 4.6 mph - N/A   Clear
9:15 PM 55.9 °F - 51.8 °F 86% 30.11 in 10.0 mi East 5.8 mph - N/A   Clear
9:35 PM 56.3 °F - 52.0 °F 85% 30.10 in 10.0 mi East 4.6 mph - N/A   Clear
9:55 PM 55.8 °F - 51.8 °F 87% 30.11 in 10.0 mi Calm Calm - N/A   Clear
10:15 PM 54.9 °F - 50.9 °F 86% 30.11 in 10.0 mi Calm Calm - N/A   Scattered Clouds
10:35 PM 54.7 °F - 51.1 °F 88% 30.10 in 10.0 mi Calm Calm - N/A   Mostly Cloudy
10:55 PM 54.7 °F - 51.1 °F 88% 30.10 in 10.0 mi Calm Calm - N/A   Overcast
11:15 PM 54.1 °F - 50.9 °F 89% 30.10 in 10.0 mi Calm Calm - N/A   Mostly Cloudy
11:55 PM 54.9 °F - 51.8 °F 89% 30.09 in 7.0 mi Calm Calm - N/A   Overcast